Regional Weather Roundup
Issued by NWS

Home | Current Version | Previous Version | Graphics & Text | Print | Product List | Glossary On
Versions: 1 2 3 4 5 6 7 8 9 10 11 12 13 14 15 16 17 18 19 20 21 22 23 24 25 26 27 28 29 30 31 32 33 34 35 36 37 38 39 40 41 42 43 44 45 46 47 48 49 50
000
ASUS43 KLMK 012102
RWRKY
KENTUCKY REGIONAL WEATHER ROUNDUP
NATIONAL WEATHER SERVICE LOUISVILLE KY
500 PM EDT MON SEP 01 2014

NOTE "FAIR" INDICATES FEW OR NO CLOUDS BELOW 12,000 FEET
WITH NO SIGNIFICANT WEATHER AND/OR OBSTRUCTIONS TO VISIBILITY.

KYZ001>023-026-027-061>063-070>075-012200-
WESTERN AND SOUTH CENTRAL KENTUCKY

CITY           SKY/WX    TMP DP  RH WIND       PRES   REMARKS
PADUCAH        CLOUDY    86  72  62 SW9G22    29.90R HX  92
HENDERSON      CLOUDY    86  72  62 SW10      29.92R HX  92
OWENSBORO      NOT AVBL
HOPKINSVILLE   PTSUNNY   85  73  65 SW18      29.96F HAZE    HX  92
BOWLING GREEN  CLOUDY    88  70  55 SW17G26   29.97F HX  93
GLASGOW        CLOUDY    85  69  59 SW13G21   29.99S
$$

KYZ024-025-028>034-038-045-046-053-012200-
NORTH CENTRAL KENTUCKY

CITY           SKY/WX    TMP DP  RH WIND       PRES   REMARKS
LOUISVILLE/SDF CLOUDY    86  71  60 SW10      29.93S HX  91
LOUISVILLE/LOU PTSUNNY   85  71  63 SW15G22   29.93F HX  90
FORT KNOX      CLOUDY    83  71  66 S12G22    29.94F
$$

KYZ035>037-039>044-047>052-055>060-089>105-012200-
NORTHEAST KENTUCKY

CITY           SKY/WX    TMP DP  RH WIND       PRES   REMARKS
LEXINGTON      MOSUNNY   85  71  63 SW15      29.99S HX  90
COVINGTON      PTSUNNY   84  69  60 SW14G22   29.93F
FRANKFORT      PTSUNNY   83  72  69 SW10G21   29.96S
$$

KYZ054-064>069-076>088-106>120-012200-
SOUTHEAST KENTUCKY

CITY           SKY/WX    TMP DP  RH WIND       PRES   REMARKS
JACKSON        MOSUNNY   87  69  54 VRB5      30.04S HX  91
LONDON         MOSUNNY   90  64  42 SW13      30.04S HX  91
SOMERSET       MOSUNNY   88  63  42 SW13G18   30.03F
MIDDLESBORO    SUNNY     87  72  59 S7        30.06F HX  93
MONTICELLO     CLEAR     89  69  51 SW14      30.04F HX  93
$$



USA.gov is the U.S. government's official web portal to all federal, state and local government web resources and services.